COSMOS 2418 (GLONASS)

Satellite information

Favourite Embed

Satellite Type and Status

PAYLOADIN ORBIT

Key statistics

Satellite COSMOS 2418 (GLONASS) at a glance.

Uptime

7253

Days in orbit

Revolutions

≈ 2.1

Per day

Orbit

MEO

Medium Earth Orbit

Inclination

65.7

Latest

Satellite identification and parameters

Extended collection of information and parameters for COSMOS 2418 (GLONASS).

Object identification

Identified? True

Debris? False

Object name: COSMOS 2418 (GLONASS)

International designator: 2005-050B

Object number (NORAD): 28916

Object ID (CCSDS): 28916

Country: COMMONWEALTH OF INDEPENDENT STATES (CIS)

Current information (Y/N): Y

RCS size: LARGE

Orbital parameters

Period: 675.719 minutes

Inclination: 65.7195 deg

SMA: 25507.677 km

Apoapsis: 19165.011 km

Periapsis: 19094.073 km

RAAN: 323.9497 deg

Eccentricy: 0.00139052

Argument of periapsis: 277.0666 deg

Mean anomaly: 83.0706 deg

Mean motion: 2.13106349 rev/day

Mean motion (dot): -0.00000004 rev/day2

B* drag term: 0.0 1/REarth

Two-line elements (TLE)

Creation date: Nov. 1, 2025, 7:40 p.m.

Reference frame: TEME

Reference center: EARTH

Epoch: Nov. 1, 2025, 2:45 a.m. UTC

TLE line 0: 0 COSMOS 2418 (GLONASS)

TLE line 1: 1 28916U 05050B 25305.11490603 -.00000004 00000-0 00000-0 0 9990

TLE line 2: 2 28916 65.7195 323.9497 0013905 277.0666 83.0706 2.13106349154407

Live tracking on map

Real-time ground track for satellite COSMOS 2418 (GLONASS).

In-orbit conjunctions

There are no conjunctions computed for COSMOS 2418 (GLONASS), at the moment. Check back to stay up to date, as we update our databases every day.

Go to all conjunctions

Associated space launch

GLONASS navigation satellites

COSMOS 2418 (GLONASS) was lifted into orbit during the mission ‘Proton | Uragan 87, Uragan-M 4 & 5’, on board a Proton space rocket.

The launch took place on Dec. 25, 2005, 5:07 a.m. from 81/24 (81P).

For more information about the launch, click the button.

Launch to space Proton | Uragan 87, Uragan-M 4 & 5
Proton | Uragan 87, Uragan-M 4 & 5

Agency: N/A

Status: Launch Successful

Launch date: Dec. 25, 2005, 5:07 a.m. UTC

Rocket: Proton

Launch pad: 81/24 (81P)

Location: Baikonur Cosmodrome, Republic of Kazakhstan

...

Latest news about this satellite

There are no fresh news available about this satellite. Check back as we update our databases every day.


Newsletter sign-up

Weekly statistics, charts and insights to help you stay on top of the space industry.